This demonstration page uses our WeatherBlox Daily Observations layout. Learn more.

Left ArrowRight Arrow

Hourly Observations for September 11, 2020

Temp ( °F °C ) Dew Point ( °F °C ) Humidity (%) Winds ( mph kmh ) Pressure ( in mb ) Visibility ( mi km ) Precip ( " mm )
12:29 am 00:29 Cloudy 56 13.3 50 10 81 81 SSE 8 13 30.27 1025 10 16 0.00 0.00
12:53 am 00:53 Cloudy 55 12.8 50 10 83 83 S 7 11 30.25 1024 10 16 0.00 0.00
1:02 am 01:02 Cloudy 55 12.8 50 10 83 83 S 6 9 30.26 1025 10 16 0.00 0.00
1:53 am 01:53 Cloudy 55 12.8 50 10 83 83 SSE 6 9 30.24 1024 10 16 0.00 0.00
2:53 am 02:53 Cloudy 55 12.8 50 10 83 83 SSE 3 6 30.23 1024 10 16 0.00 0.00
3:32 am 03:32 Cloudy 55 12.8 49 9.4 80 80 SSE 3 6 30.24 1024 10 16 0.00 0.00
3:53 am 03:53 Cloudy 55 12.8 49 9.4 80 80 Calm 30.22 1023 10 16 0.00 0.00
4:53 am 04:53 Cloudy 55 12.8 50 10 83 83 Calm 30.21 1023 10 16 0.00 0.00
5:53 am 05:53 Cloudy 55 12.8 50 10 83 83 E 3 6 30.19 1023 10 16 0.00 0.00
6:53 am 06:53 Cloudy 55 12.8 50 10 83 83 Calm 30.20 1023 10 16 0.00 0.00
7:48 am 07:48 Cloudy 55 13 50 10 82 82 SSE 6 9 30.23 1024 10 16 0.00 0.00
7:53 am 07:53 Cloudy 55 12.8 50 10 83 83 SSE 3 6 30.21 1023 10 16 0.00 0.00
8:11 am 08:11 Cloudy 55 12.8 50 10 83 83 SE 3 6 30.24 1024 10 16 0.00 0.00
8:53 am 08:53 Cloudy 56 13.3 50 10 81 81 Calm 30.22 1023 10 16 0.00 0.00
9:53 am 09:53 Cloudy 58 14.4 50 10 75 75 Calm 30.22 1023 10 16 0.00 0.00
10:53 am 10:53 Cloudy 60 15.6 49 9.4 67 67 Calm 30.22 1023 10 16 0.00 0.00
11:53 am 11:53 Cloudy 62 16.7 49 9.4 62 62 ENE 3 6 30.22 1023 10 16 0.00 0.00
12:53 pm 12:53 Cloudy 64 17.8 50 10 60 60 E 6 9 30.19 1022 10 16 0.00 0.00
1:53 pm 13:53 Cloudy 66 18.9 51 10.6 59 59 VRB 3 6 30.15 1021 10 16 0.00 0.00
2:53 pm 14:53 Cloudy 69 20.6 52 11.1 55 55 Calm 30.10 1019 10 16 0.00 0.00
3:53 pm 15:53 Sunny 71 21.7 53 11.7 53 53 Calm 30.05 1018 10 16 0.00 0.00
4:53 pm 16:53 Sunny 74 23.3 54 12.2 50 50 SSE 7 11 30.01 1016 10 16 0.00 0.00
5:53 pm 17:53 Sunny 74 23.3 55 12.8 52 52 S 7 11 29.99 1016 10 16 0.00 0.00
6:53 pm 18:53 Sunny 73 22.8 55 12.8 53 53 SSE 8 13 29.98 1015 10 16 0.00 0.00
7:53 pm 19:53 Sunny 71 21.7 56 13.3 59 59 SSE 9 15 29.98 1015 10 16 0.00 0.00
8:53 pm 20:53 Clear 68 20 56 13.3 65 65 SSE 7 11 29.99 1016 10 16 0.00 0.00
9:53 pm 21:53 Clear 66 18.9 57 13.9 73 73 SSE 7 11 30.01 1016 10 16 0.00 0.00
10:53 pm 22:53 Clear 64 17.8 57 13.9 78 78 SE 5 7 30.00 1016 10 16 0.00 0.00
11:53 pm 23:53 Clear 63 17.2 57 13.9 81 81 SE 6 9 30.00 1016 10 16 0.00 0.00

Powered by AerisWeather